Tracking 19199 objects as of 25-Jun-2018
HD Live streaming from Space Station
objects crossing your sky now

COSMOS 2110 (GLONASS)

Track COSMOS 2110 (GLONASS) now!
COSMOS 2110 (GLONASS) is classified as:


NORAD ID: 21007
Int'l Code: 1990-110B
Perigee: 19,021.0 km
Apogee: 19,253.2 km
Inclination: 64.1 °
Period: 675.7 minutes
Semi major axis: 25508 km
RCS: 1.5445 m2 (large)
Launch date: December 8, 1990
Source: Commonwealth of Independent States (former USSR) (CIS)
Launch site: TYURATAM MISSILE AND SPACE COMPLEX (TTMTR)
SV:
aabbcc
Your satellite tracking list
Your tracking list is empty




NASA's NSSDC Master Catalog

Two Line Element Set (TLE):
1 21007U 90110B   18176.40000646  .00000074  00000-0  00000+0 0  9994
2 21007  64.1270 171.6327 0045524 193.5284 333.0730  2.13101259214393
Source of the keplerian elements: AFSPC